Terug naar catalogus

STARLINK-31712

ActiefCommunicatieVLEO
NORAD 59491·PAYLOAD·🇺🇸 United States

Gelanceerd Apr 13, 2024 vanaf Cape Canaveral Space Force Station

Loading…

Volgende Passages (komende 24 uur)

TLE

VersSource: CelesTrak SupGP

Epoch: Sep 14, 2026, 20:59 UTC

1 59491C 24071H   26257.87479167  .00022791  00000+0  82551-3 0  2574
2 59491  43.0017   2.7353 0001492 273.2331 212.3037 15.27566522    12

Volg STARLINK-31712 in realtime met AllMySat

Download on the App Store